DW9565 Weather Reports


time (UTC)temp
C
wind
direction
speed
KPH
gust
KPH
rain 1hr
cm
rain 24hr
cm
rain mn
cm
humidity
%
barometer
mb
20260504044534 9 29 16.1 27.4 0.00 0.00 0.00 46 1013.7
20260504043038 9 32 20.9 33.8 0.00 0.00 0.00 46 1013.5
20260504041524 10 32 29.0 41.8 0.00 0.00 0.00 45 1013.2
20260504034524 11 24 16.1 25.7 0.00 0.00 0.00 45 1012.2
20260504033023 11 34 4.8 9.7 0.00 0.00 0.00 44 1011.7
20260504031524 11 26 6.4 16.1 0.00 0.00 0.00 45 1011.4
20260504024540 12 22 12.9 24.1 0.00 0.00 0.00 43 1011.0
20260504023039 13 28 19.3 30.6 0.00 0.00 0.00 42 1010.8
20260504021539 13 12 17.7 32.2 0.00 0.00 0.00 41 1010.8
20260504014529 16 23 24.1 35.4 0.00 0.00 0.00 35 1010.5
20260504013023 17 18 19.3 24.1 0.00 0.00 0.00 31 1010.5
20260504011522 17 355 17.7 35.4 0.00 0.00 0.00 28 1010.4
20260504004521 19 313 16.1 30.6 0.00 0.00 0.00 23 1010.3
20260504003019 19 306 17.7 30.6 0.00 0.00 0.00 24 1010.4
20260504001519 20 321 22.5 33.8 0.00 0.00 0.00 23 1010.6
20260503234517 20 299 24.1 35.4 0.00 0.00 0.00 22 1010.8
20260503233011 19 327 25.7 38.6 0.00 0.00 0.00 22 1010.9
20260503231511 20 296 25.7 38.6 0.00 0.00 0.00 22 1011.0
20260503224518 20 298 19.3 37.0 0.00 0.00 0.00 24 1011.1
20260503223017 20 302 25.7 45.1 0.00 0.00 0.00 22 1011.2
20260503221516 20 297 24.1 41.8 0.00 0.00 0.00 23 1011.2
20260503214535 20 264 24.1 35.4 0.00 0.00 0.00 25 1011.4
20260503213017 19 282 25.7 38.6 0.00 0.00 0.00 23 1011.6
20260503211516 19 298 29.0 46.7 0.00 0.00 0.00 23 1011.8
20260503204511 20 284 27.4 40.2 0.00 0.00 0.00 26 1012.0
20260503203009 18 257 19.3 37.0 0.00 0.00 0.00 25 1012.3
20260503201507 18 288 20.9 43.5 0.00 0.00 0.00 25 1012.3
20260503194549 17 333 17.7 35.4 0.00 0.00 0.00 26 1012.7
20260503193056 17 315 19.3 30.6 0.00 0.00 0.00 28 1012.9
20260503191545 18 277 17.7 33.8 0.00 0.00 0.00 25 1013.3
20260503184507 18 308 20.9 30.6 0.00 0.00 0.00 26 1013.5
20260503183007 17 293 12.9 29.0 0.00 0.00 0.00 29 1013.6
20260503181504 16 313 14.5 24.1 0.00 0.00 0.00 31 1014.0
20260503174557 16 323 11.3 30.6 0.00 0.00 0.00 35 1014.1
20260503173059 16 260 16.1 24.1 0.00 0.00 0.00 34 1014.3
20260503171548 15 283 17.7 27.4 0.00 0.00 0.00 35 1014.4
20260503081505 8 239 6.4 16.1 0.00 0.00 0.00 64 1016.0
20260503071602 8 232 6.4 12.9 0.00 0.00 0.00 63 1016.3